Flagge von USA

Wetter-Rückblick Ann Arbor, Michigan, USA – gestern, letzte Wochen & Monate

Aktuell:-1 °C. Bedeckt. (Wetterstation: Ann Arbor Municipal Airport, USA). Zur Wetterübersicht

Wetter-Rückblick für Ann Arbor — Graph

Temperatur gestern in Ann Arbor

Höchsttemperatur gestern: 1 °C (um 14:00 Uhr)
Tiefsttemperatur gestern: -2 °C (um 22:53 Uhr)
Durchschnittstemperatur gestern: -1 °C

Tiefst- und Höchstwerte der vergangenen Wochen

 TemperaturLuftfeuchteDruck
Höchst7 °C (13. Jan, 14:53)100% (5. Jan, 06:14)1029 hPa (5. Jan, 06:14)
Tiefst-10 °C (10. Jan, 04:53)57% (9. Jan, 15:53)998 hPa (15. Jan, 13:30)
Durchschnitt-1 °C84%1015 hPa
* Abgerufen 4. Jan 14:08 — 19. Jan 14:53, Ann Arbor. Wetterdaten von CustomWeather, © 2016

Hinweis: Spiegelt tatsächliche Extremwerte möglicherweise nicht korrekt wider, wenn diese zwischen den Ableseintervallen aufgetreten sind.

Ann Arbor Wetterrückblick

Nach rechts scrollen
 WetterbedingungenBioklima  
Uhrzeit TempWetterWind LuftfeuchteBarometerSicht
14:53
Di, 19. Jan
-1 °CBedeckt.24 km/h69%1019 hPa13 km
13:53-1 °CBedeckt.26 km/h69%1019 hPa13 km
13:17-1 °CTeilweise sonnig.24 km/h69%1018 hPa13 km
12:53-1 °CHeiter.24 km/h67%1019 hPa14 km
11:53-1 °CStark bewölkt.20 km/h69%1020 hPa14 km
11:41-1 °CStark bewölkt.26 km/h66%1019 hPa14 km
10:53-2 °CMeist bewölkt.22 km/h69%1020 hPa16 km
10:34-2 °CMeist bewölkt.28 km/h69%1019 hPa16 km
09:53-2 °CBedeckt.17 km/h69%1020 hPa16 km
08:53-3 °CBedeckt.19 km/h72%1020 hPa16 km
07:53-2 °CBedeckt.15 km/h69%1019 hPa16 km
06:53-2 °CBedeckt.22 km/h72%1018 hPa14 km
05:53-2 °CBedeckt.20 km/h72%1018 hPa14 km
05:33-2 °CMeist bewölkt.19 km/h75%1017 hPa13 km
04:53-2 °CBedeckt.15 km/h75%1017 hPa13 km
03:53-2 °CMeist bewölkt.20 km/h78%1017 hPa11 km
02:53-2 °CBedeckt.20 km/h81%1017 hPa10 km
01:53-2 °CBedeckt.17 km/h79%1016 hPa10 km
01:02-2 °CMeist bewölkt.19 km/h81%1015 hPa10 km
23:53
Mo, 18. Jan
-2 °CBedeckt.17 km/h78%1016 hPa13 km
22:53-2 °CBedeckt.13 km/h78%1016 hPa16 km
21:53-2 °CBedeckt.19 km/h75%1016 hPa16 km
20:53-2 °CBedeckt.15 km/h79%1015 hPa14 km
19:53-2 °CBedeckt.15 km/h79%1015 hPa11 km
18:53-2 °CLeichter Schneefall. Meist bewölkt.19 km/h82%1014 hPa5 km
17:53-1 °CMeist bewölkt.19 km/h79%1013 hPa11 km
17:26-1 °CStark bewölkt.15 km/h82%1012 hPa8 km
Wetterdaten von CustomWeather, © 2021

Wetter-Übersicht